Location: Cork
(51.8990°N, 8.4960°W)
Time: 05:16:07
(UTC+00:00)

Iridium 66 - Visible Passes

Search period start: 28 March 2015 00:00
Search period end: 07 April 2015 01:00
Orbit: 776 x 779 km, 86.4° (Epoch: 26 March)

Date Brightness Start Highest point End Pass type
(mag) Time Alt. Az. Time Alt. Az. Time Alt. Az.
28 Mar 8.6 00:07:29 11° ENE 00:07:29 11° ENE 00:07:58 10° NE visible
28 Mar 7.1 01:47:57 41° NNE 01:47:57 41° NNE 01:51:27 10° N visible
28 Mar 7.7 03:28:24 21° NW 03:28:24 21° NW 03:31:30 10° NNW visible
29 Mar 7.5 02:14:27 31° NE 02:14:27 31° NE 02:17:41 10° NNE visible
29 Mar 7.3 03:54:55 30° NW 03:54:55 30° NW 03:58:25 10° N visible
30 Mar 8.0 01:40:57 22° NE 01:40:57 22° NE 01:43:42 10° NNE visible
30 Mar 6.9 03:21:25 41° NNW 03:21:25 41° NNW 03:25:05 10° N visible
30 Mar 8.3 05:01:52 10° WNW 05:02:03 10° WNW 05:02:10 10° WNW visible
31 Mar 8.4 01:07:27 14° ENE 01:07:27 14° ENE 01:09:17 10° NE visible
31 Mar 6.9 02:47:54 47° N 02:47:54 47° N 02:51:35 10° N visible
31 Mar 7.9 04:28:22 16° WNW 04:28:22 16° WNW 04:31:07 10° NNW visible
01 Apr 7.2 02:14:24 39° NE 02:14:24 39° NE 02:17:56 10° NNE visible
01 Apr 7.5 03:54:52 25° NW 03:54:52 25° NW 03:58:16 10° NNW visible
02 Apr 7.6 01:40:53 28° NE 01:40:53 28° NE 01:44:06 10° NNE visible
02 Apr 7.1 03:21:20 36° NW 03:21:20 36° NW 03:25:04 10° N visible
03 Apr 8.1 01:07:21 19° ENE 01:07:21 19° ENE 01:09:59 10° NNE visible
03 Apr 6.8 02:47:49 48° NNW 02:47:49 48° NNW 02:51:40 10° N visible
03 Apr 8.2 04:28:17 12° WNW 04:28:20 12° WNW 04:30:22 10° NW visible
04 Apr 8.4 00:33:50 12° ENE 00:33:50 12° ENE 00:35:10 10° NE visible
04 Apr 6.8 02:14:17 48° NNE 02:14:17 48° NNE 02:18:06 10° N visible
04 Apr 7.8 03:54:45 19° WNW 03:54:45 19° WNW 03:58:00 10° NNW visible
05 Apr 7.2 01:40:45 36° NE 01:40:45 36° NE 01:44:22 10° NNE visible
05 Apr 7.3 03:21:13 29° NW 03:21:13 29° NW 03:24:58 10° NNW visible
06 Apr 7.7 01:07:13 25° ENE 01:07:13 25° ENE 01:10:27 10° NNE visible
06 Apr 6.9 02:47:41 43° NW 02:47:41 43° NW 02:51:40 10° N visible
07 Apr 8.1 00:33:40 16° ENE 00:33:40 16° ENE 00:36:08 10° NE visible
